Showing default

ORBCOMM FM 12, 25115

Orbit data source: Space-Track

ORBCOMM FM 12, 25115 is a payload satellite owned by Orbcomm (US) in LEO that was launched on Tue, 23 Dec 1997 UTC via a PEGASUS XL/HAPS launch vehicle from the Pegasus Launch, Eastern Range Air Space (ERAS). Payload-class satellites include a variety of spacecraft equipped with specific instruments for various scientific and technological missions. These include communications satellites like Starlink; space stations such as the ISS; scientific satellites like the Hubble; Earth observation satellites from companies like Planet Labs, Umbra, and HawkEye 360; GPS; miniature CubeSats for education and research; and military/defense satellites.

Loading next visibility...
Identifier
25115, 1997-084D
Orbit
LEO
Country
Flag of USUS / ORB
Related business
Manufacturer
OSC-Germantown
Mission
Non-operational Commercial Communications
Bus & Motor
MICROSTAR, Unknown motor
Mass
42 kg wet, 42 kg dry
Launch date (UTC)
1997-12-23 (28 years ago)
Launch vehicle
PEGASUS XL/HAPS
Launch site
Pegasus Launch, Eastern Range Air Space (ERAS)
Object type
Payload
Rocket body
Debris
Shape & HBR
Cyl + 2 Pan, 4.2 m
Radar Cross Section
1.484 m², Medium (>0.1 m² and < 1m²)

Expand to show TLE details & history
Last TLE update: 2 days ago

TLE from 2 days ago
0 ORBCOMM FM 12
1 25115U 97084D   26171.35130757  .00000741  00000-0  24263-3 0  9992
2 25115  45.0150  42.5092 0004020 294.6038  65.4395 14.46740758494567
Epoch: 2026-06-20T08:25Z
TLE epoch observation values (Epoch: 2026-06-20T08:25:52.974Z)
Latitude
0.00001°
Longitude
7.47131°
Altitude
735.126 km
Speed
7.49 km/s
True Right ascension
02h 50m 02s
True Declination
0° 00' 00"
Sunlit
Object was in daylight at epoch
Visualization orbit readout
Latitude
Unknown
Longitude
Unknown
Altitude
Unknown
Speed
Unknown
Apparent Right ascension
Unknown
Apparent Declination
Unknown
Sunlit
N/A
Visualization observer readout
Local Sidereal Time
00:39:48
Azimuth
Unknown
Elevation
Unknown
Doppler factor
Unknown
Orbital elements
Apogee altitude
740.724 km
Perigee altitude
735.003 km
Semi-major axis
7,116 km
Eccentricity
0.0004
Inclination
45.015°
RAAN
42.5092°
Arg. of periapsis
294.6038°
True anomaly
65.48141°
Mean anomaly
65.4395°
Eccentric anomaly
65.46045°
Mean motion
3.61567 °/min
Orbital period
99.57 mins
BSTAR
0.00024263
Loading maneuver chart data...
Computing Atmospheric mass density...

Documentation

Showing up to 5 results
|